User: anonymous   Login
Location: Unspecified
(0.0000°N, 0.0000°E)
Time: 00:10:40
(UTC+00:00)
Language:

Vanguard 2 - Orbit

View from above orbital plane
View from above orbital plane
View from above satellite
View from above satellite

Ground track
Ground track

The orbit data is extracted from the following two-line orbital elements,

1 00011U 59001A   14324.62214127  .00000709  00000-0  36205-3 0  3221
2 00011 032.8740 134.9462 1472602 284.4974 059.7136 11.84701790375078
Epoch (UTC): 20 November 2014 14:55:53
Eccentricity: 0.1472602
inclination: 32.8740°
perigee height: 553 km
apogee height: 2947 km
right ascension of ascending node: 134.9462°
argument of perigee: 284.4974°
revolutions per day: 11.84701790
mean anomaly at epoch: 59.7136°
orbit number at epoch: 37507

The dashed part of the orbit path shows where the satellite is in the earth's shadow,  

DLR